STARLINK-32901, 62895

Orbit data source: Space-Track

STARLINK-32901, 62895 is a payload satellite owned by SpaceX/Seattle (US) in LEO that was launched on Tue, 04 Feb 2025 UTC via an FALCON 9 launch vehicle from the Air Force Eastern Test Range (AFETR). Payload-class satellites include a variety of spacecraft equipped with specific instruments for various scientific and technological missions. These include communications satellites like Starlink; space stations such as the ISS; scientific satellites like the Hubble; Earth observation satellites from companies like Planet Labs, Umbra, and HawkEye 360; GPS; miniature CubeSats for education and research; and military/defense satellites.

Loading next visibility...
Identifier
62895, 2025-024S
Orbit
LEO
Country
Flag of USUS
Related business
Manufacturer
SpaceX/Seattle
Mission
Operational Commercial Communications
Bus & Motor
STARLINK V2M, Unknown motor
Mass
730 kg wet, ~700 kg dry
Launch date (UTC)
2025-02-04 (2 years ago)
Launch vehicle
FALCON 9
Launch site
Air Force Eastern Test Range (AFETR)
Object type
Payload
Rocket body
Debris
Shape & HBR
Box + 2 Pan, 17.7 m
Radar Cross Section
33.884 m², Large (>1 m²)

Expand to show TLE details & history
Last TLE update: 2 days ago

TLE from 2 days ago
0 STARLINK-32901
1 62895U 25024S   26262.40650843  .00008340  00000-0  31213-3 0  9999
2 62895  43.0024 311.2462 0001885 282.8376  77.2265 15.27590530 91895
Epoch: 2026-09-19T09:45Z
TLE epoch observation values (Epoch: 2026-09-19T09:45:22.328Z)
Latitude
-0.00001°
Longitude
166.58765°
Altitude
482.508 km
Speed
7.626 km/s
True Right ascension
20h 44m 59s
True Declination
0° 00' 00"
Sunlit
Object was in full shadow at epoch
Visualization orbit readout
Latitude
Unknown
Longitude
Unknown
Altitude
Unknown
Speed
Unknown
Apparent Right ascension
Unknown
Apparent Declination
Unknown
Sunlit
N/A
Visualization observer readout
Local Sidereal Time
08:06:31
Azimuth
Unknown
Elevation
Unknown
Doppler factor
Unknown
Orbital elements
Apogee altitude
486.256 km
Perigee altitude
483.669 km
Semi-major axis
6,863.099 km
Eccentricity
0.00019
Inclination
43.0024°
RAAN
311.2462°
Arg. of periapsis
282.8376°
True anomaly
77.24757°
Mean anomaly
77.2265°
Eccentric anomaly
77.23703°
Mean motion
3.81736 °/min
Orbital period
94.31 mins
BSTAR
0.00031213
Loading maneuver chart data...
Computing Atmospheric mass density...
Loading historical data...
Loading historical data...
Loading historical data...
Loading historical data...
Loading historical data...
Loading historical data...
Loading historical data...

Documentation

Showing up to 5 results
|